Simultaneous Nadir Overpasses (SNOs) Predictions

Prediction of SNOs between METOP-B and TERRA Satellite Orbit:

Table of predicted SNOs for the next 14.0 days since TLE Epoch: 1/11/2020
Index Date (METOP-B) Time (METOP-B) Lat,Lon (METOP-B) SZA (METOP-B ) Date (TERRA) Time (TERRA) Lat,Lon (TERRA) SZA (TERRA ) Distance(km) Time Diff (sec)
1 01/13/2020 12:19:30 81.29, 42.10 105.19 01/13/2020 12:20:18 81.29, 41.91 105.19 3.19 48
2 01/13/2020 13:10:11 -81.29,-150.64 74.83 01/13/2020 13:09:45 -81.28,-150.61 74.84 0.92 26
3 01/16/2020 07:53:54 81.29, 108.41 104.65 01/16/2020 07:54:33 81.29, 108.35 104.66 1.17 39
4 01/16/2020 08:44:35 -81.29, -84.28 75.36 01/16/2020 08:44:00 -81.28, -84.14 75.37 2.42 35
5 01/19/2020 03:28:18 81.29, 174.71 104.07 01/19/2020 03:28:48 81.29, 174.83 104.10 2.21 30
6 01/19/2020 04:18:58 -81.29, -17.55 75.90 01/19/2020 04:18:15 -81.29, -17.62 75.93 1.23 43
7 01/21/2020 23:02:41 81.28,-119.01 103.43 01/21/2020 23:03:03 81.28,-119.00 103.43 0.75 22
8 01/21/2020 23:53:21 -81.29, 48.77 76.53 01/21/2020 23:52:29 -81.29, 48.95 76.53 3.16 52
9 01/24/2020 18:37:04 81.29, -52.36 102.79 01/24/2020 18:37:18 81.29, -52.41 102.79 0.96 14




NCC Satellite Simultaneous Nadir Overpasses (SNOs) Prediction Service
